This is the latest recevied weather packets stored in our database for station/object DW9280. If no packets are shown the sender has not sent any weather packets the latest 10 day(s).
| Time | Temp. | Humidity | Pressure | Rain* | Wind** | Luminosity | Snow |
|---|---|---|---|---|---|---|---|
| 1787842406 | 28.89° C | 59% | 1009 hPa | 0 mm | - | 441 W/m² | - |
| 1787842100 | 28.89° C | 59% | 1009 hPa | 0 mm | - | 450 W/m² | - |
| 1787841837 | 28.89° C | 59% | 1008.9 hPa | 0 mm | - | 462 W/m² | - |
| 1787841623 | 28.33° C | 61% | 1008.9 hPa | 0 mm | - | 482 W/m² | - |
| 1787841196 | 28.89° C | 60% | 1009 hPa | 0 mm | - | 476 W/m² | - |
| 1787840896 | 28.89° C | 61% | 1008.8 hPa | 0 mm | - | 504 W/m² | - |
| 1787840594 | 28.89° C | 61% | 1008.8 hPa | 0 mm | - | 503 W/m² | - |
| 1787840292 | 28.89° C | 61% | 1008.8 hPa | 0 mm | - | 519 W/m² | - |
| 1787839991 | 28.89° C | 61% | 1008.8 hPa | 0 mm | - | 529 W/m² | - |
| 1787839687 | 28.89° C | 62% | 1008.8 hPa | 0 mm | - | 540 W/m² | - |
| 1787839512 | 28.89° C | 61% | 1008.8 hPa | 0 mm | - | 561 W/m² | - |
| 1787839212 | 28.33° C | 62% | 1008.7 hPa | 0 mm | - | 617 W/m² | - |
| 1787838787 | 28.33° C | 62% | 1008.7 hPa | 0 mm | - | 533 W/m² | - |
| 1787838488 | 28.33° C | 62% | 1008.7 hPa | 0 mm | - | 355 W/m² | - |
| 1787838189 | 28.33° C | 62% | 1008.7 hPa | 0 mm | - | 652 W/m² | - |
| 1787837886 | 28.33° C | 64% | 1008.8 hPa | 0 mm | - | 682 W/m² | - |
| 1787837588 | 27.78° C | 64% | 1008.8 hPa | 0 mm | - | 290 W/m² | - |
| 1787837286 | 27.22° C | 65% | 1008.7 hPa | 0 mm | - | 612 W/m² | - |
| 1787837113 | 26.67° C | 66% | 1008.8 hPa | 0 mm | - | 396 W/m² | - |
| 1787836688 | 27.22° C | 65% | 1008.8 hPa | 0 mm | - | 278 W/m² | - |
| 1787836387 | 27.78° C | 63% | 1008.8 hPa | 0 mm | - | 179 W/m² | - |
| 1787836088 | 27.78° C | 64% | 1008.8 hPa | 0 mm | - | 680 W/m² | - |
| 1787835787 | 27.22° C | 65% | 1008.9 hPa | 0 mm | - | 675 W/m² | - |
| 1787835613 | 27.22° C | 65% | 1008.9 hPa | 0 mm | - | 497 W/m² | - |
| 1787835311 | 27.22° C | 64% | 1008.9 hPa | 0 mm | - | 392 W/m² | - |
* Rain latest hour (hover to see other rain measurements)
** Current wind speed in m/s (hover to see current wind gust speed)